Location: Ajisawe
(8.4333°N, 4.3833°E)
Time: 20:38:11
(UTC+00:00)

Vanguard 2 Rocket - Pass Details

Date: 27 April 2021
Orbit: 554 x 3326 km, 32.9° (Epoch: 16 May)

Event Time Altitude Azimuth Distance (km) Brightness Sun altitude
Rises 16:35:15 0° 307° (NW) 7,208 12.7 17.7°
Reaches altitude 10° 16:40:17 10° 312° (NW) 6,269 12.4 16.4°
Maximum altitude 17:00:10 57° 27° (NNE) 3,318 9.8 11.6°
Drops below altitude 10° 17:14:23 10° 102° (ESE) 4,689 9.9 8.2°
Sets 17:17:30 0° 107° (ESE) 5,373 10.1 7.5°
